Погода в Леонидовке

Россия / Пензенская область     53°09′03″N   45°15′10″E
темп.,
°C
ветер,
м/с
пор.,
м/с
влажн.,
%
обл.,
%
осадки,
мм/ч
давл.,
гПа
погр.,
м
15 мая, сб
сб1500:00+17юв31481100 0.0 1016310
03:00+17ююв4176155 0.0 1016451
06:00+18ююв4165635 0.0 1016464
09:00+23ю51442100 0.0 1016767
12:00+26ю61236100 0.0 10161059
15:00+27ю613395 0.0 10161515
18:00+23ююв512515 0.0 1016704
21:00+17юв3136745 0.0 1015239
16 мая, вс
вс1600:00+15ююв246870 0.0 101563
03:00+14ююв237098 0.0 101645
06:00+16ююв14685 0.0 1016117
09:00+23ю354846 0.0 1016496
12:00+26ю5837100 0.0 10161057
15:00+26ю4837100 0.0 10161672
18:00+23ююз1259100 0.0 101525
21:00+17ююв117380 0.0 101611
17 мая, пн
пн1700:00+16вюв1174100 0.0 101711
03:00+16вюв226799 0.0 101711
06:00+17вюв2369100 0.0 101784
09:00+25ююв483984 0.0 1017528
12:00+28ююв592792 0.0 10171960
15:00+27ююв4633100 0.0 10161140
18:00+24вюв2457100 0.0 101680
21:00+18вюв2262100 0.0 101642
18 мая, вт
вт1800:00+17вюв2760100 0.0 1016104
03:00+15вюв3858100 0.0 1015126
06:00+17вюв41258100 0.0 1015266
09:00+24юв59395 0.0 1015511
12:00+29юв592848 0.0 10141207
15:00+29юв5103493 0.0 10131663
18:00+25вюв395085 0.0 1012256
21:00+19вюв314555 0.0 1013256
19 мая, ср
ср1900:00+20юв5174379 0.0 1012458
03:00+20юв5183880 0.0 1011549
06:00+19юв4145164 0.0 1011490
09:00+23ююв494363 0.0 1011734
12:00+26ююв3639100 0.0 10111194
15:00+24ююв3653100 0.0 1011860
18:00+22юз3765100 0.0 1010644
21:00+17з288436 0.1 1011172